ARG1706 SAZS-SAME

Flight info

Callsign ARG1706
Flight time 1h 40m
Altitude 39000
Route CHATO2C CHATO UW44 ESITO ESITO2U
Aircraft B738/M-SDE2E3FGHIRWXY/LB1

Departure

Time 2026-04-26 22:22
Airport Teniente Luis Candelaria International Airport (SAZS)

Arrival

Time 2026-04-27 00:03
Airport Governor Francisco Gabrielli International Airport (SAME)
Time Latitude Longitude Altitude Speed Heading
2026-04-26 21:49 -41.14698 -71.16158 2748 ft 0 kts 58°
2026-04-26 22:11 -41.14699 -71.16159 2748 ft 2 kts 58°
2026-04-26 22:11 -41.14712 -71.16188 2750 ft 4 kts 56°
2026-04-26 22:11 -41.14726 -71.16215 2748 ft 2 kts 58°
2026-04-26 22:11 -41.14740 -71.16238 2751 ft 4 kts 33°
2026-04-26 22:12 -41.14754 -71.16249 2749 ft 2 kts 29°
2026-04-26 22:12 -41.14771 -71.16267 2751 ft 4 kts 69°
2026-04-26 22:12 -41.14771 -71.16298 2752 ft 4 kts 111°
2026-04-26 22:12 -41.14767 -71.16312 2752 ft 1 kts 114°
2026-04-26 22:15 -41.14767 -71.16311 2752 ft 0 kts 114°
2026-04-26 22:15 -41.14774 -71.16292 2754 ft 4 kts 114°
2026-04-26 22:16 -41.14783 -71.16265 2751 ft 6 kts 114°
2026-04-26 22:16 -41.14797 -71.16208 2749 ft 8 kts 115°
2026-04-26 22:16 -41.14823 -71.16133 2750 ft 10 kts 115°
2026-04-26 22:16 -41.14858 -71.16035 2750 ft 13 kts 115°
2026-04-26 22:17 -41.14913 -71.15878 2749 ft 14 kts 115°
2026-04-26 22:17 -41.14941 -71.15797 2748 ft 14 kts 114°
2026-04-26 22:17 -41.14981 -71.15683 2751 ft 13 kts 115°
2026-04-26 22:17 -41.15020 -71.15572 2748 ft 14 kts 115°
2026-04-26 22:18 -41.15061 -71.15455 2748 ft 15 kts 114°
2026-04-26 22:18 -41.15104 -71.15331 2748 ft 15 kts 115°
2026-04-26 22:18 -41.15152 -71.15193 2748 ft 18 kts 115°
2026-04-26 22:18 -41.15204 -71.15041 2748 ft 18 kts 114°
2026-04-26 22:19 -41.15256 -71.14894 2751 ft 17 kts 115°
2026-04-26 22:19 -41.15307 -71.14751 2748 ft 17 kts 115°
2026-04-26 22:19 -41.15354 -71.14613 2748 ft 16 kts 114°
2026-04-26 22:19 -41.15403 -71.14486 2749 ft 14 kts 134°
2026-04-26 22:20 -41.15453 -71.14476 2748 ft 0 kts 203°
2026-04-26 22:21 -41.15465 -71.14483 2748 ft 4 kts 205°
2026-04-26 22:21 -41.15508 -71.14511 2748 ft 10 kts 211°
2026-04-26 22:21 -41.15523 -71.14596 2751 ft 6 kts 296°
2026-04-26 22:21 -41.15467 -71.14752 2751 ft 52 kts 295°
2026-04-26 22:22 -41.15198 -71.15525 2749 ft 130 kts 295°
2026-04-26 22:22 -41.14765 -71.16802 3130 ft 163 kts 293°
2026-04-26 22:22 -41.14320 -71.18170 4273 ft 157 kts 294°
2026-04-26 22:22 -41.13867 -71.19476 5317 ft 158 kts 294°
2026-04-26 22:23 -41.13374 -71.20892 5866 ft 183 kts 293°
2026-04-26 22:23 -41.12811 -71.22505 6247 ft 205 kts 293°
2026-04-26 22:23 -41.12190 -71.24343 6564 ft 229 kts 292°
2026-04-26 22:23 -41.11530 -71.26332 7207 ft 239 kts 291°
2026-04-26 22:24 -41.10854 -71.28345 8233 ft 238 kts 289°
2026-04-26 22:24 -41.10172 -71.30353 9218 ft 240 kts 288°
2026-04-26 22:24 -41.09480 -71.32389 10136 ft 244 kts 286°
2026-04-26 22:24 -41.08783 -71.34458 10978 ft 247 kts 286°
2026-04-26 22:25 -41.07890 -71.36457 11812 ft 263 kts 304°
2026-04-26 22:25 -41.06417 -71.37954 12681 ft 281 kts 324°
2026-04-26 22:25 -41.04504 -71.38770 13511 ft 301 kts 346°
2026-04-26 22:25 -41.02360 -71.38572 14276 ft 320 kts 12°
2026-04-26 22:26 -41.00350 -71.37190 14962 ft 333 kts 39°
2026-04-26 22:26 -40.98849 -71.34840 15637 ft 338 kts 64°
2026-04-26 22:26 -40.98198 -71.31926 16275 ft 328 kts 97°
2026-04-26 22:26 -40.98502 -71.29007 17046 ft 318 kts 114°
2026-04-26 22:27 -40.99046 -71.26156 17827 ft 323 kts 113°
2026-04-26 22:27 -40.99259 -71.23113 18536 ft 345 kts 93°
2026-04-26 22:27 -40.98719 -71.19997 19180 ft 360 kts 75°
2026-04-26 22:27 -40.97665 -71.16960 19931 ft 366 kts 67°
2026-04-26 22:28 -40.96427 -71.14003 20606 ft 371 kts 61°
2026-04-26 22:28 -40.94630 -71.11496 21182 ft 382 kts 34°
2026-04-26 22:28 -40.92220 -71.09951 21458 ft 393 kts
2026-04-26 22:28 -40.89491 -71.09247 21637 ft 409 kts
2026-04-26 22:29 -40.86613 -71.08633 21767 ft 428 kts
2026-04-26 22:29 -40.83625 -71.07960 22061 ft 443 kts
2026-04-26 22:29 -40.80604 -71.07233 22616 ft 449 kts
2026-04-26 22:29 -40.77521 -71.06473 23258 ft 453 kts
2026-04-26 22:30 -40.74405 -71.05706 23778 ft 458 kts
2026-04-26 22:30 -40.71257 -71.04933 24251 ft 463 kts
2026-04-26 22:30 -40.68076 -71.04155 24746 ft 467 kts
2026-04-26 22:30 -40.64873 -71.03372 25297 ft 468 kts
2026-04-26 22:31 -40.61664 -71.02588 25822 ft 470 kts
2026-04-26 22:31 -40.58432 -71.01802 26261 ft 475 kts
2026-04-26 22:31 -40.55177 -71.00981 26676 ft 479 kts
2026-04-26 22:31 -40.51942 -71.00051 27077 ft 484 kts 10°
2026-04-26 22:32 -40.48647 -70.99037 27537 ft 487 kts 11°
2026-04-26 22:32 -40.45343 -70.97997 27998 ft 490 kts 11°
2026-04-26 22:32 -40.42014 -70.96951 28424 ft 493 kts 11°
2026-04-26 22:32 -40.38665 -70.95910 28849 ft 496 kts 10°
2026-04-26 22:33 -40.35295 -70.94875 29285 ft 499 kts 10°
2026-04-26 22:33 -40.28496 -70.92815 30081 ft 505 kts 10°
2026-04-26 22:33 -40.25067 -70.91783 30446 ft 507 kts 10°
2026-04-26 22:34 -40.21625 -70.90749 30787 ft 509 kts 10°
2026-04-26 22:34 -40.18164 -70.89711 31139 ft 511 kts 10°
2026-04-26 22:34 -40.14740 -70.88684 31454 ft 513 kts 10°
2026-04-26 22:34 -40.11252 -70.87639 31775 ft 515 kts 10°
2026-04-26 22:35 -40.07744 -70.86588 32067 ft 517 kts 10°
2026-04-26 22:35 -40.04232 -70.85538 32390 ft 519 kts 10°
2026-04-26 22:35 -40.00706 -70.84483 32700 ft 521 kts 11°
2026-04-26 22:35 -39.97167 -70.83427 33016 ft 522 kts 11°
2026-04-26 22:36 -39.93629 -70.82368 33436 ft 522 kts 11°
2026-04-26 22:36 -39.90098 -70.81296 33882 ft 520 kts 11°
2026-04-26 22:36 -39.86580 -70.80234 34279 ft 519 kts 11°
2026-04-26 22:36 -39.83111 -70.79200 34621 ft 518 kts 11°
2026-04-26 22:37 -39.79602 -70.78164 35055 ft 514 kts 10°
2026-04-26 22:37 -39.76133 -70.77140 35550 ft 509 kts
2026-04-26 22:37 -39.72686 -70.76123 35960 ft 506 kts
2026-04-26 22:37 -39.69253 -70.75109 36333 ft 504 kts
2026-04-26 22:38 -39.65845 -70.74102 36690 ft 501 kts
2026-04-26 22:38 -39.62455 -70.73101 37063 ft 499 kts
2026-04-26 22:38 -39.59081 -70.72105 37449 ft 496 kts
2026-04-26 22:38 -39.55722 -70.71114 37814 ft 494 kts
2026-04-26 22:39 -39.52420 -70.70141 38142 ft 492 kts
2026-04-26 22:39 -39.49096 -70.69163 38507 ft 489 kts
2026-04-26 22:39 -39.45789 -70.68190 38882 ft 486 kts
2026-04-26 22:39 -39.42504 -70.67224 39140 ft 484 kts
2026-04-26 22:40 -39.39218 -70.66260 39259 ft 485 kts
2026-04-26 22:40 -39.32629 -70.64332 39266 ft 486 kts
2026-04-26 22:41 -39.26087 -70.62419 39268 ft 484 kts
2026-04-26 22:41 -39.19535 -70.60507 39266 ft 482 kts
2026-04-26 22:42 -39.13006 -70.58606 39270 ft 480 kts
2026-04-26 22:42 -39.06499 -70.56714 39272 ft 479 kts
2026-04-26 22:43 -39.00014 -70.54832 39269 ft 477 kts
2026-04-26 22:43 -38.93589 -70.52969 39274 ft 476 kts
2026-04-26 22:44 -38.87130 -70.51103 39276 ft 476 kts
2026-04-26 22:44 -38.80671 -70.49239 39286 ft 476 kts
2026-04-26 22:45 -38.74205 -70.47377 39283 ft 476 kts
2026-04-26 22:45 -38.67726 -70.45515 39294 ft 478 kts
2026-04-26 22:46 -38.61274 -70.43664 39291 ft 480 kts
2026-04-26 22:46 -38.54750 -70.41800 39292 ft 482 kts
2026-04-26 22:47 -38.48197 -70.39920 39295 ft 484 kts
2026-04-26 22:47 -38.41671 -70.38060 39286 ft 486 kts
2026-04-26 22:48 -38.35046 -70.36171 39282 ft 487 kts
2026-04-26 22:48 -38.28428 -70.34294 39278 ft 488 kts
2026-04-26 22:49 -38.21809 -70.32420 39283 ft 487 kts
2026-04-26 22:49 -38.15234 -70.30562 39282 ft 488 kts
2026-04-26 22:50 -38.08608 -70.28686 39276 ft 487 kts
2026-04-26 22:50 -38.02001 -70.26816 39282 ft 486 kts
2026-04-26 22:51 -37.95406 -70.24967 39278 ft 485 kts
2026-04-26 22:51 -37.88818 -70.23121 39283 ft 485 kts
2026-04-26 22:52 -37.82281 -70.21289 39294 ft 485 kts
2026-04-26 22:52 -37.75685 -70.19444 39285 ft 486 kts
2026-04-26 22:53 -37.69086 -70.17599 39258 ft 484 kts
2026-04-26 22:53 -37.62526 -70.15767 39273 ft 483 kts
2026-04-26 22:54 -37.56005 -70.13954 39265 ft 483 kts
2026-04-26 22:54 -37.49430 -70.12129 39263 ft 484 kts
2026-04-26 22:55 -37.42857 -70.10307 39253 ft 484 kts
2026-04-26 22:55 -37.36270 -70.08483 39267 ft 485 kts
2026-04-26 22:56 -37.29723 -70.06675 39254 ft 486 kts
2026-04-26 22:56 -37.23111 -70.04850 39256 ft 486 kts
2026-04-26 22:57 -37.16493 -70.03028 39244 ft 487 kts
2026-04-26 22:57 -37.09873 -70.01210 39237 ft 489 kts
2026-04-26 22:58 -37.03284 -69.99399 39231 ft 486 kts
2026-04-26 22:58 -36.96709 -69.97594 39231 ft 482 kts
2026-04-26 22:59 -36.90182 -69.95808 39228 ft 478 kts
2026-04-26 22:59 -36.83714 -69.94043 39228 ft 474 kts
2026-04-26 23:00 -36.77279 -69.92292 39229 ft 474 kts
2026-04-26 23:00 -36.70838 -69.90545 39240 ft 481 kts
2026-04-26 23:01 -36.64258 -69.88763 39230 ft 485 kts
2026-04-26 23:01 -36.57651 -69.86968 39214 ft 486 kts
2026-04-26 23:02 -36.51132 -69.85196 39210 ft 478 kts
2026-04-26 23:02 -36.44652 -69.83448 39206 ft 475 kts
2026-04-26 23:03 -36.38203 -69.81715 39201 ft 473 kts
2026-04-26 23:03 -36.31780 -69.79991 39197 ft 473 kts
2026-04-26 23:04 -36.25386 -69.78271 39193 ft 472 kts
2026-04-26 23:04 -36.18964 -69.76556 39187 ft 472 kts
2026-04-26 23:05 -36.12528 -69.74839 39181 ft 473 kts
2026-04-26 23:05 -36.06094 -69.73122 39176 ft 473 kts
2026-04-26 23:06 -35.99710 -69.71419 39184 ft 473 kts
2026-04-26 23:06 -35.93272 -69.69709 39173 ft 474 kts
2026-04-26 23:07 -35.86806 -69.67992 39178 ft 476 kts
2026-04-26 23:07 -35.80336 -69.66276 39193 ft 476 kts
2026-04-26 23:08 -35.73899 -69.64572 39193 ft 476 kts
2026-04-26 23:08 -35.67408 -69.62856 39194 ft 477 kts
2026-04-26 23:09 -35.60916 -69.61143 39201 ft 477 kts
2026-04-26 23:09 -35.58820 -69.60590 39197 ft 477 kts
2026-04-26 23:30 -35.54851 -69.59545 39223 ft 476 kts
2026-04-26 23:30 -35.48440 -69.57820 39255 ft 477 kts
2026-04-26 23:31 -35.42127 -69.55102 39261 ft 483 kts 14°
2026-04-26 23:31 -35.35842 -69.52138 39253 ft 483 kts 14°
2026-04-26 23:32 -35.29604 -69.49230 39248 ft 483 kts 13°
2026-04-26 23:32 -35.23313 -69.46350 39237 ft 483 kts 13°
2026-04-26 23:33 -35.17015 -69.43488 39231 ft 483 kts 13°
2026-04-26 23:33 -35.10711 -69.40629 39225 ft 483 kts 13°
2026-04-26 23:34 -35.04444 -69.37789 39230 ft 484 kts 13°
2026-04-26 23:34 -34.98131 -69.34932 39228 ft 484 kts 13°
2026-04-26 23:35 -34.91823 -69.32082 39229 ft 484 kts 13°
2026-04-26 23:35 -34.85508 -69.29233 39229 ft 484 kts 13°
2026-04-26 23:36 -34.79227 -69.26406 38944 ft 489 kts 13°
2026-04-26 23:36 -34.76036 -69.24973 38381 ft 488 kts 13°
2026-04-26 23:36 -34.72855 -69.23542 37831 ft 486 kts 13°
2026-04-26 23:36 -34.69696 -69.22120 37409 ft 481 kts 13°
2026-04-26 23:37 -34.66577 -69.20716 37000 ft 476 kts 14°
2026-04-26 23:37 -34.63485 -69.19328 36605 ft 472 kts 14°
2026-04-26 23:37 -34.60417 -69.17952 36210 ft 468 kts 14°
2026-04-26 23:37 -34.57382 -69.16594 35828 ft 463 kts 14°
2026-04-26 23:38 -34.54362 -69.15244 35434 ft 460 kts 14°
2026-04-26 23:38 -34.51408 -69.13925 35038 ft 457 kts 14°
2026-04-26 23:38 -34.48434 -69.12598 34649 ft 454 kts 14°
2026-04-26 23:38 -34.45478 -69.11280 34252 ft 452 kts 15°
2026-04-26 23:39 -34.42531 -69.09966 33793 ft 450 kts 15°
2026-04-26 23:39 -34.39607 -69.08665 33322 ft 446 kts 17°
2026-04-26 23:39 -34.36709 -69.07374 32970 ft 442 kts 17°
2026-04-26 23:39 -34.33830 -69.06092 32575 ft 439 kts 17°
2026-04-26 23:40 -34.30976 -69.04823 32196 ft 436 kts 17°
2026-04-26 23:40 -34.28181 -69.03582 31816 ft 433 kts 17°
2026-04-26 23:40 -34.25353 -69.02334 31354 ft 433 kts 17°
2026-04-26 23:40 -34.22535 -69.01095 30964 ft 430 kts 17°
2026-04-26 23:41 -34.19727 -68.99862 30590 ft 427 kts 17°
2026-04-26 23:41 -34.16943 -68.98640 30192 ft 425 kts 17°
2026-04-26 23:41 -34.14171 -68.97424 29751 ft 422 kts 17°
2026-04-26 23:41 -34.11424 -68.96219 29332 ft 419 kts 17°
2026-04-26 23:42 -34.08687 -68.95018 28929 ft 416 kts 17°
2026-04-26 23:42 -34.03289 -68.92653 28151 ft 410 kts 17°
2026-04-26 23:42 -34.00654 -68.91500 27769 ft 407 kts 17°
2026-04-26 23:43 -33.98005 -68.90341 27387 ft 404 kts 17°
2026-04-26 23:43 -33.95364 -68.89186 27007 ft 402 kts 17°
2026-04-26 23:43 -33.92746 -68.88043 26640 ft 400 kts 17°
2026-04-26 23:43 -33.90131 -68.86935 26258 ft 396 kts 12°
2026-04-26 23:44 -33.87442 -68.86450 25903 ft 387 kts 359°
2026-04-26 23:44 -33.84761 -68.86260 25545 ft 385 kts 358°
2026-04-26 23:44 -33.82129 -68.86110 25194 ft 383 kts 358°
2026-04-26 23:44 -33.79472 -68.85960 24812 ft 383 kts 358°
2026-04-26 23:45 -33.76818 -68.85797 24443 ft 381 kts 359°
2026-04-26 23:45 -33.74169 -68.85617 24062 ft 381 kts 359°
2026-04-26 23:45 -33.71524 -68.85429 23661 ft 380 kts 359°
2026-04-26 23:45 -33.68891 -68.85239 23241 ft 379 kts 359°
2026-04-26 23:46 -33.66264 -68.85048 22848 ft 377 kts 359°
2026-04-26 23:46 -33.63660 -68.84858 22475 ft 374 kts 359°
2026-04-26 23:46 -33.61069 -68.84670 22105 ft 372 kts 359°
2026-04-26 23:46 -33.58531 -68.84486 21747 ft 369 kts 359°
2026-04-26 23:47 -33.55969 -68.84299 21386 ft 367 kts 359°
2026-04-26 23:47 -33.53431 -68.84115 21027 ft 365 kts 359°
2026-04-26 23:47 -33.50900 -68.83931 20669 ft 363 kts 359°
2026-04-26 23:47 -33.48384 -68.83749 20305 ft 361 kts 359°
2026-04-26 23:48 -33.45879 -68.83568 19960 ft 360 kts 359°
2026-04-26 23:48 -33.43380 -68.83387 19601 ft 359 kts 359°
2026-04-26 23:48 -33.40899 -68.83207 19235 ft 358 kts 359°
2026-04-26 23:48 -33.38453 -68.83031 18892 ft 356 kts 359°
2026-04-26 23:49 -33.35977 -68.82853 18524 ft 356 kts 359°
2026-04-26 23:49 -33.33517 -68.82677 18139 ft 354 kts 359°
2026-04-26 23:49 -33.31060 -68.82500 17771 ft 352 kts 359°
2026-04-26 23:49 -33.28628 -68.82322 17418 ft 349 kts 359°
2026-04-26 23:50 -33.26215 -68.82146 17064 ft 346 kts 359°
2026-04-26 23:50 -33.23818 -68.81972 16727 ft 343 kts 359°
2026-04-26 23:50 -33.21441 -68.81801 16392 ft 341 kts 359°
2026-04-26 23:50 -33.19117 -68.81634 16059 ft 339 kts 360°
2026-04-26 23:51 -33.16770 -68.81466 15722 ft 336 kts 360°
2026-04-26 23:51 -33.14442 -68.81300 15383 ft 334 kts
2026-04-26 23:51 -33.12291 -68.81147 15074 ft 331 kts
2026-04-26 23:51 -33.09999 -68.80984 14749 ft 329 kts
2026-04-26 23:52 -33.07724 -68.80823 14419 ft 326 kts
2026-04-26 23:52 -33.05470 -68.80661 14093 ft 324 kts
2026-04-26 23:52 -33.03253 -68.80502 13728 ft 322 kts
2026-04-26 23:52 -33.00999 -68.80325 13364 ft 320 kts
2026-04-26 23:53 -32.98913 -68.79561 12992 ft 321 kts 28°
2026-04-26 23:53 -32.97032 -68.78138 12661 ft 319 kts 33°
2026-04-26 23:53 -32.95202 -68.76656 12296 ft 317 kts 33°
2026-04-26 23:53 -32.93387 -68.75177 11944 ft 315 kts 33°
2026-04-26 23:54 -32.91580 -68.73716 11591 ft 314 kts 33°
2026-04-26 23:54 -32.89774 -68.72269 11237 ft 312 kts 33°
2026-04-26 23:54 -32.87972 -68.70834 10894 ft 310 kts 33°
2026-04-26 23:54 -32.86179 -68.69412 10556 ft 309 kts 33°
2026-04-26 23:55 -32.84397 -68.68001 10212 ft 307 kts 33°
2026-04-26 23:55 -32.82665 -68.66632 10155 ft 295 kts 33°
2026-04-26 23:55 -32.80979 -68.65298 9721 ft 296 kts 33°
2026-04-26 23:55 -32.79112 -68.64230 9222 ft 299 kts 12°
2026-04-26 23:56 -32.77050 -68.64108 8876 ft 296 kts 355°
2026-04-26 23:56 -32.75004 -68.64297 8528 ft 294 kts 355°
2026-04-26 23:56 -32.72974 -68.64485 8216 ft 292 kts 355°
2026-04-26 23:56 -32.70954 -68.64661 7893 ft 290 kts 355°
2026-04-26 23:57 -32.68949 -68.64827 7585 ft 287 kts 355°
2026-04-26 23:57 -32.66991 -68.65098 7130 ft 290 kts 342°
2026-04-26 23:57 -32.65267 -68.66249 6809 ft 284 kts 315°
2026-04-26 23:57 -32.64183 -68.68155 6498 ft 278 kts 288°
2026-04-26 23:58 -32.63920 -68.70380 6181 ft 272 kts 263°
2026-04-26 23:58 -32.64403 -68.72513 5915 ft 266 kts 241°
2026-04-26 23:58 -32.65358 -68.74304 5876 ft 249 kts 234°
2026-04-26 23:58 -32.66313 -68.75946 5745 ft 234 kts 234°
2026-04-26 23:59 -32.67205 -68.77481 5642 ft 218 kts 234°
2026-04-26 23:59 -32.68066 -68.78860 5504 ft 204 kts 221°
2026-04-26 23:59 -32.69282 -68.79511 5399 ft 187 kts 191°
2026-04-26 23:59 -32.70534 -68.79786 5257 ft 176 kts 185°
2026-04-27 00:00 -32.71722 -68.79840 5050 ft 168 kts 178°
2026-04-27 00:00 -32.72854 -68.79838 4791 ft 158 kts 180°
2026-04-27 00:00 -32.73897 -68.79526 4329 ft 157 kts 147°
2026-04-27 00:00 -32.74884 -68.79010 3908 ft 159 kts 176°
2026-04-27 00:01 -32.75943 -68.79411 3504 ft 161 kts 195°
2026-04-27 00:01 -32.77002 -68.79442 3351 ft 149 kts 168°
2026-04-27 00:01 -32.78008 -68.79269 3157 ft 152 kts 173°
2026-04-27 00:01 -32.79048 -68.79223 2934 ft 146 kts 178°
2026-04-27 00:02 -32.80050 -68.79245 2750 ft 142 kts 178°
2026-04-27 00:02 -32.81024 -68.79247 2537 ft 138 kts 178°
2026-04-27 00:02 -32.81970 -68.79269 2349 ft 132 kts 177°
2026-04-27 00:02 -32.82760 -68.79283 2337 ft 85 kts 181°
2026-04-27 00:03 -32.83169 -68.79291 2335 ft 48 kts 180°
2026-04-27 00:03 -32.83489 -68.79299 2331 ft 44 kts 181°
2026-04-27 00:03 -32.83777 -68.79303 2334 ft 39 kts 182°
2026-04-27 00:03 -32.84007 -68.79308 2337 ft 22 kts 181°
2026-04-27 00:04 -32.84063 -68.79344 2336 ft 4 kts 254°
2026-04-27 00:04 -32.84062 -68.79384 2335 ft 6 kts 282°
2026-04-27 00:04 -32.84054 -68.79437 2334 ft 7 kts 280°
2026-04-27 00:04 -32.84045 -68.79495 2334 ft 8 kts 278°
2026-04-27 00:05 -32.84000 -68.79531 2333 ft 10 kts 359°
2026-04-27 00:05 -32.83919 -68.79529 2336 ft 13 kts
2026-04-27 00:05 -32.83818 -68.79534 2334 ft 16 kts
2026-04-27 00:05 -32.83699 -68.79525 2334 ft 18 kts
2026-04-27 00:06 -32.83568 -68.79523 2334 ft 19 kts
2026-04-27 00:06 -32.83436 -68.79519 2335 ft 19 kts
2026-04-27 00:06 -32.83308 -68.79516 2334 ft 18 kts
2026-04-27 00:06 -32.83185 -68.79514 2334 ft 17 kts
2026-04-27 00:07 -32.83066 -68.79512 2335 ft 17 kts 359°
2026-04-27 00:07 -32.82970 -68.79579 2334 ft 16 kts 320°
2026-04-27 00:07 -32.82932 -68.79669 2387 ft 12 kts 271°
2026-04-27 00:07 -32.82915 -68.79708 2388 ft 4 kts 328°
2026-04-27 00:08 -32.82882 -68.79711 2387 ft 6 kts
2026-04-27 00:08 -32.82826 -68.79710 2389 ft 9 kts
2026-04-27 00:08 -32.82760 -68.79709 2388 ft 9 kts
2026-04-27 00:08 -32.82722 -68.79734 2389 ft 6 kts 278°
2026-04-27 00:09 -32.82722 -68.79766 2388 ft 1 kts 270°
2026-04-27 00:09 -32.82722 -68.79774 2388 ft 1 kts 270°